Regional Weather Roundup
Issued by NWS

Home | Current Version | Previous Version | Text Only | Print | Product List | Glossary Off
Versions: 1 2 3 4 5 6 7 8 9 10 11 12 13 14 15 16 17 18 19 20 21 22 23 24 25 26 27 28 29 30 31 32 33 34 35 36 37 38 39 40 41 42 43 44 45 46 47 48 49 50

451
ASUS43 KOAX 111602
RWRNE

WEATHER ROUNDUP FOR NEBRASKA
NATIONAL WEATHER SERVICE OMAHA NE
1000 AM CST THU FEB 11 2016

NOTES: SATELLITE DATA IS BEING USED TO AUGMENT CLOUD COVER ABOVE
       12000 FEET.
       "FAIR" INDICATES FEW OR NO CLOUDS BELOW 12,000 FEET WITH NO
       SIGNIFICANT WEATHER AND/OR OBSTRUCTIONS TO VISIBILITY.

  * THESE STATIONS DO NOT REPORT WEATHER SUCH AS RAIN...SNOW OR FOG.

NEZ001>004-019>022-054>056-111700-
NEBRASKA PANHANDLE

CITY           SKY/WX    TMP DP  RH WIND       PRES   REMARKS
SCOTTSBLUFF    SUNNY     42  26  53 NW9       30.08S
ALLIANCE       CLOUDY    37  29  72 W13       30.05R WCI  29
CHADRON        CLOUDY    40  29  64 W12       30.05R WCI  33
KIMBALL        CLOUDY    45  25  46 W13       30.11S
SIDNEY         CLOUDY    44  27  51 W13       30.09S
$$

NEZ057>060-069>072-079>082-111700-
SOUTHWEST NEBRASKA

CITY           SKY/WX    TMP DP  RH WIND       PRES   REMARKS
NORTH PLATTE   CLOUDY    28  25  88 S10       30.11F WCI  19
IMPERIAL       MOSUNNY   36  27  69 SW7       30.10F WCI  30
LEXINGTON      CLOUDY    30  28  92 S9        30.18R FOG     WCI  21
MCCOOK         FOG       27  27 100 SE7       30.17R VSB 1/4 WCI  19
$$

NEZ005>010-023>029-035>040-094-111700-
NORTH CENTRAL NEBRASKA

CITY           SKY/WX    TMP DP  RH WIND       PRES   REMARKS
VALENTINE      CLOUDY    30  29  96 SE9       30.06F FOG     WCI  22
AINSWORTH      CLOUDY    30  29  96 S10       30.06F FOG     WCI  21
BROKEN BOW     CLOUDY    31  29  92 S13       30.13F WCI  21
ORD            CLOUDY    27  25  92 S8        30.16S FOG     WCI  19
$$

NEZ041-046>049-061>064-073>077-083>087-111700-
SOUTH CENTRAL NEBRASKA

CITY           SKY/WX    TMP DP  RH WIND       PRES   REMARKS
GRAND ISLAND   CLOUDY    24  22  91 SE10      30.22F FOG     WCI  14
AURORA         CLOUDY    23  22  95 SE9       30.22F FOG     WCI  13
HASTINGS       CLOUDY    25  23  92 S7        30.22R FOG     WCI  17
HEBRON         CLOUDY    23  19  84 CALM      30.28R
KEARNEY *      CLOUDY    28  27  93 S12       30.19F WCI  18
YORK           CLOUDY    21  19  93 S6        30.25S WCI  14
$$

NEZ011>018-030>034-042>045-111700-
NORTHEAST NEBRASKA

CITY           SKY/WX    TMP DP  RH WIND       PRES   REMARKS
NORFOLK        CLOUDY    20  16  84 SE8       30.24R WCI  10
ALBION         CLOUDY    22  19  90 SE9       30.21F FOG     WCI  12
BLAIR          CLOUDY    17   6  63 E6        30.28S WCI   8
COLUMBUS *     CLOUDY    19   9  63 SE6       30.26R WCI  11
FREMONT        CLOUDY    17   6  62 E6        30.29F WCI   8
TEKAMAH        CLOUDY    16   8  71 SE12      30.31F WCI   3
$$

NEZ050>053-065>068-078-088>093-111700-
SOUTHEAST NEBRASKA

CITY           SKY/WX    TMP DP  RH WIND       PRES   REMARKS
LINCOLN        CLOUDY    21  15  78 SE5       30.30S WCI  15
OMAHA EPPLEY   CLOUDY    16   5  62 SE6       30.32R WCI   7
BEATRICE       CLOUDY    21  19  90 E5        30.28S WCI  15
NEBRASKA CITY  CLOUDY    22  13  70 SE6       30.31R WCI  14
PLATTSMOUTH    CLOUDY    19  10  68 E6        30.30R WCI  10
$$

NEZ044-045-051>053-067-111700-
OMAHA AREA

CITY           SKY/WX    TMP DP  RH WIND       PRES   REMARKS
OMAHA EPPLEY   CLOUDY    16   5  62 SE6       30.32R WCI   7
BLAIR          CLOUDY    17   6  63 E6        30.28S WCI   8
FREMONT        CLOUDY    17   6  62 E6        30.29F WCI   8
OFFUTT AFB     CLOUDY    18   7  61 E6        30.31R WCI  10
PLATTSMOUTH    CLOUDY    19  10  68 E6        30.30R WCI  10
WAHOO          CLOUDY    19  12  74 SE7       30.29S WCI  10
$$




USA.gov is the U.S. government's official web portal to all federal, state and local government web resources and services.